x

Boston 16 Nm East Of Boston, Ma (44013) Wave Buoy

3:50pm - Mon 28th Jul 2014 All times are EDT. -4 hours from GMT.

  • Sig Wave height 2.3ft
  • Swell Direction
  • Peak Period 4s
  • Average Period 4s
  • Wind
    13mph, 16mph gusts
  • Sea Temp 65°f
  • Air Temp 68°f
  • Sea Pressure 998.3mb
  • Boston 16 Nm East Of Boston, Ma
  • Boston 16 Nm East Of Boston, Ma

More Historic Weather Station data

Upgrade to MSW Pro to gain access to the past 30 days of data for over 8000 Wavebouys and Weather Stations around the globe.

Join Pro

Comparision Forecast

View Surf forecast
   
Mon 07/28 3:50pm 2.5ft 4s 4s 13 16 mph 998.3mb 65f 68f
2:50pm 2ft 4s 4s 16 18 mph 998.8mb 65f 67f
1:50pm 2.5ft 3s 4s 18 20 mph 999.1mb 65f 69f
12:50pm 2ft 4s 4s 16 18 mph 1000mb 65f 68f
11:50am 2.5ft 3s 4s 13 16 mph 1001.1mb 65f 68f
10:50am 2.5ft 3s 4s 13 16 mph 1001.4mb 65f 66f
9:50am 2ft 3s 3s 18 20 mph 1000.9mb 65f 67f
8:50am 2ft 6s 3s 16 18 mph 1002mb 65f 67f
7:50am 1.6ft 3s 4s 13 18 mph 1002.7mb 65f 66f
6:50am 1.3ft 5s 4s 11 13 mph 1003.3mb 65f 66f
5:50am 1.3ft 5s 4s 9 11 mph 1003.5mb 65f 66f
4:50am 1.3ft 8s 4s 7 9 mph 1003.7mb 65f 66f
3:50am 1.3ft 8s 4s 7 9 mph 1003.8mb 65f 66f
2:50am 1.6ft 5s 4s 11
mph
1004.1mb 65f 66f
1:50am 1.6ft 4s 4s 11 13 mph 1004.7mb 65f 67f
12:50am 1.6ft 4s 4s 7 9 mph 1004.9mb 65f 66f
Sun 07/27 11:50pm 2ft 4s 4s 9 11 mph 1005.2mb 65f 67f
10:50pm 2ft 4s 4s 11 13 mph 1005.3mb 65f 67f
9:50pm 1.6ft 4s 4s 9 11 mph 1005.5mb 65f 66f
8:50pm 1.6ft 4s 4s 7 9 mph 1006.5mb 65f 67f
7:50pm 1.6ft 4s 4s 9 11 mph 1005.3mb 65f 67f
6:50pm 1.6ft 4s 4s 9 11 mph 1005.7mb 65f 66f
5:50pm 1.6ft 4s 4s 13 16 mph 1005.8mb 65f 67f
4:50pm 1.6ft 3s 3s 16 18 mph 1006.5mb 65f 66f
3:50pm 1.6ft 3s 3s 13 18 mph 1006.9mb 65f 66f
2:50pm 1.6ft 8s 3s 9 11 mph 1008mb 65f 66f
1:50pm 1.6ft 3s 3s 7 9 mph 1008.3mb 65f 68f
12:50pm 1.6ft 8s 3s 13 16 mph 1008.5mb 65f 69f
11:50am 1.6ft 3s 3s 16 18 mph 1008.6mb 65f 68f
10:50am 1.6ft 8s 4s 11 13 mph 1009.2mb 65f 68f
9:50am 1.3ft 8s 4s 4 7 mph 1009.8mb 65f 67f
8:50am 1.3ft 8s 5s 7 9 mph 1010.2mb 65f 65f
7:50am 1.3ft 8s 5s 11
mph
1010.3mb 64f 65f
6:50am 1ft 8s 4s 9
mph
1010.9mb 64f 64f
5:50am 1.3ft 8s 4s 7 9 mph 1011.2mb 64f 64f
4:50am 1.3ft 8s 4s 9 11 mph 1011.3mb 64f 65f
3:50am 1ft 8s 4s 9 11 mph 1011.4mb 64f 66f
2:50am 1.3ft 8s 4s 9 11 mph 1011.6mb 64f 65f
1:50am 1.3ft 9s 4s 9
mph
1012.1mb 64f 65f
12:50am 1.3ft 4s 4s 9
mph
1012.3mb 64f 66f
Sat 07/26 11:50pm 1.6ft 9s 4s 9
mph
1012.8mb 64f 66f
10:50pm 1.3ft 8s 4s 9 11 mph 1012.8mb 64f 67f
9:50pm 1.6ft 8s 4s 11 13 mph 1012.9mb 64f 67f
8:50pm 1.6ft 4s 4s 11 13 mph 1012.5mb 64f 68f
7:50pm 1.6ft 3s 3s 13 16 mph 1012.1mb 64f 69f
6:50pm 2ft 3s 3s 13 16 mph 1012.1mb 64f 70f
5:50pm 1.6ft 3s 3s 16 18 mph 1012.1mb 64f 70f
4:50pm 1.6ft 4s 3s 16
mph
1012.2mb 65f 71f
3:50pm 1.3ft 3s 4s 9 11 mph 1012.4mb 65f 73f
2:50pm 1.3ft 8s 4s 7 9 mph 1012.7mb 65f 70f
1:50pm 1.3ft 9s 4s 11
mph
1013mb 64f 70f
12:50pm 1.3ft 8s 4s 11
mph
1013.7mb 64f 67f
11:50am 1ft 8s 4s 11
mph
1014.3mb 64f 66f
10:50am 1ft 9s 5s 11 13 mph 1014.7mb 64f 66f
9:50am 1.3ft 9s 4s 7 9 mph 1015.2mb 63f 65f
8:50am 1.3ft 9s 5s 7
mph
1015.5mb 63f 64f
7:50am 1ft 10s 4s 7
mph
1015.5mb 63f 64f
6:50am 1.3ft 9s 4s 7 9 mph 1015.6mb 63f 63f
5:50am 1ft 9s 4s 9
mph
1015.4mb 63f 63f
4:50am 1ft 9s 4s 7 9 mph 1015.1mb 63f 63f
3:50am 1ft 9s 4s 11 13 mph 1015mb 63f 64f
2:50am 1ft 8s 5s 9
mph
1015mb 63f 64f
1:50am 1ft 9s 4s 7 9 mph 1014.8mb 63f 64f
12:50am 1.3ft 9s 4s 9
mph
1015mb 63f 65f
Fri 07/25 11:50pm 1.3ft 9s 4s 9 11 mph 1015mb 63f 65f
10:50pm 1.3ft 10s 5s 11 13 mph 1014.8mb 64f 66f
9:50pm 1.3ft 9s 4s 9
mph
1014.8mb 64f 67f
8:50pm 1.6ft 10s 4s 11 13 mph 1014.3mb 64f 67f
7:50pm 1.6ft 3s 4s 13 16 mph 1013.8mb 64f 67f
6:50pm 1.6ft 11s 4s 13 18 mph 1013.9mb 65f 67f
5:50pm 1.6ft 8s 4s 13 16 mph 1013.9mb 66f 68f
4:50pm 1.3ft 8s 5s 11 13 mph 1013.8mb 67f 68f
3:50pm 1.3ft 9s 5s 11
mph
1014mb 67f 68f
2:50pm 1ft 11s 5s 7
mph
1013.9mb 67f 69f
1:50pm 1.3ft 10s 4s 7
mph
1014.4mb 66f 68f
12:50pm 1.3ft 10s 4s 4 7 mph 1014.6mb 65f 67f
11:50am 1.3ft 9s 4s 4 7 mph 1015.2mb 64f 66f
10:50am 1.3ft 8s 5s 7
mph
1015.4mb 64f 64f
9:50am 1.3ft 9s 5s 7 9 mph 1015.1mb 63f 63f
8:50am 1.6ft 9s 4s 7 9 mph 1014.7mb 63f 62f
7:50am 1.6ft 10s 4s 7 9 mph 1014.6mb 63f 62f
6:50am 1.6ft 9s 4s 11 13 mph 1014.2mb 62f 62f
5:50am 2ft 9s 4s 13 16 mph 1013.8mb 62f 62f
4:50am 1.6ft 8s 4s 11 13 mph 1013.4mb 63f 62f
3:50am 1.6ft 10s 5s 13 16 mph 1012.7mb 63f 64f
2:50am 1.6ft 10s 5s 13
mph
1012.4mb 64f 65f
1:50am 1.6ft 5s 5s 7 9 mph 1012.6mb 63f 64f
12:50am 1.6ft 5s 5s 4
mph
1012.4mb 63f 63f
Thu 07/24 11:50pm 2ft 5s 4s 4
mph
1012.6mb 63f 63f
10:50pm 2ft 6s 4s 2
mph
1012.1mb 64f 63f
9:50pm 2ft 4s 4s 4 7 mph 1011.9mb 64f 63f
8:50pm 2ft 5s 4s 2
mph
1011.4mb 64f 63f